Location: Rio Negrinho
(26.2394°S, 49.4999°W)
Time: 20:00:14
(UTC+00:00)

Cosmos 1844 - Pass Details

Date: 08 October 2020
Orbit: 824 x 866 km, 70.9° (Epoch: 20 October)

Event Time Altitude Azimuth Distance (km) Brightness Sun altitude
Exits shadow 07:08:37 38° 338° (NNW) 1,275 4.3 -22.9°
Maximum altitude 07:10:56 85° 252° (WSW) 859 3.6 -22.4°
Drops below altitude 10° 07:16:42 10° 163° (SSE) 2,505 6.6 -21.1°
Sets 07:19:12 0° 162° (SSE) 3,453 7.4 -20.6°
